Spokane Fairchild, WA

6:06 PM PDT on March 27, 2017 (GMT -0700)
Fairchild Air Force Base

Weather History for KSKA - November, 2013

Change the Weather History Date:

Saturday, November 2, 2013

  Actual Average Record
Temperature  
Mean Temperature 44 °F -  
Max Temperature 50 °F 44 °F 58 °F (2010)
Min Temperature 36 °F 28 °F 14 °F (2002)
Degree Days  
Heating Degree Days 22    
Moisture  
Dew Point 37 °F    
Average Humidity 85    
Maximum Humidity 100    
Minimum Humidity 60    
Precipitation  
Precipitation 0.38 in - - ()
Sea Level Pressure  
Sea Level Pressure 29.69 in    
Wind  
Wind Speed 11 mph (SSE)    
Max Wind Speed 30 mph    
Max Gust Speed 41 mph    
Visibility 9 miles    
Events Rain , Snow    
Averages and records for this station are not official NWS values.
T = Trace of Precipitation, MM = Missing Value Source: NWS Daily Summary

Daily Weather History Graph

Daily Weather History Graph

Search for Another Location

Airport or City:

Trip Planner

Search our weather history database for the weather conditions in past years. The results will help you decide how hot, cold, wet, or windy it might be!

Date:

Astronomy

Nov. 02, 2013 Rise Set
Actual Time 7:36 AM PDT 5:30 PM PDT
Civil Twilight 7:04 AM PDT 6:03 PM PDT
Nautical Twilight 6:27 AM PDT 6:39 PM PDT
Astronomical Twilight 5:52 AM PDT 7:15 PM PDT
Moon 6:36 AM PDT (11/2) 5:06 PM PDT (11/2)
Length of Visible Light 10h 58m
Length of Day
9h 54m
Waning Crescent, 1% of the Moon is Illuminated
Nov 2
Waning Crescent
Nov 3
New
Nov 9
First Quarter
Nov 17
Full
Nov 25
Last Quarter

Hourly Weather History & Observations

Time (PDT) Temp. Windchill Dew Point Humidity Pressure Visibility Wind Dir Wind Speed Gust Speed Precip Events Conditions
12:58 AM 37.6 °F 31.6 °F 36.5 °F 96% 29.98 in 10.0 mi ENE 8.1 mph - N/A   Clear
1:58 AM 38.5 °F 34.1 °F 37.0 °F 95% 29.93 in 10.0 mi ENE 5.8 mph - N/A   Clear
2:11 AM 39.2 °F 35.0 °F 37.4 °F 93% 29.87 in 10.0 mi East 5.8 mph - N/A Rain Light Rain
2:49 AM 39.2 °F 35.9 °F 37.4 °F 93% 29.84 in 10.0 mi East 4.6 mph - N/A   Mostly Cloudy
2:53 AM 39.2 °F 34.2 °F 37.4 °F 93% 29.84 in 10.0 mi ENE 6.9 mph - N/A Rain Light Rain
2:58 AM 39.4 °F 35.2 °F 37.0 °F 91% 29.87 in 10.0 mi ENE 5.8 mph - 0.00 in Rain Light Rain
3:58 AM 40.1 °F 35.3 °F 37.6 °F 91% 29.82 in 10.0 mi NE 6.9 mph - 0.01 in Rain Light Rain
4:20 AM 39.2 °F - 37.4 °F 93% 29.80 in 10.0 mi NE 2.3 mph - N/A   Mostly Cloudy
4:25 AM 39.2 °F - 37.4 °F 93% 29.81 in 10.0 mi NNE 1.2 mph - N/A Rain Light Rain
4:53 AM 41.0 °F 36.4 °F 37.4 °F 87% 29.77 in 10.0 mi NNW 6.9 mph - N/A   Mostly Cloudy
4:58 AM 40.5 °F 35.8 °F 38.1 °F 91% 29.80 in 10.0 mi North 6.9 mph - 0.00 in   Mostly Cloudy
5:02 AM 41.0 °F 36.4 °F 37.4 °F 87% 29.76 in 10.0 mi North 6.9 mph - N/A Rain Light Rain
5:35 AM 41.0 °F 36.4 °F 37.4 °F 87% 29.73 in 10.0 mi NE 6.9 mph - N/A   Scattered Clouds
5:38 AM 39.2 °F 34.2 °F 37.4 °F 93% 29.73 in 10.0 mi NNE 6.9 mph - N/A Rain Light Rain
5:49 AM 39.2 °F 35.0 °F 37.4 °F 93% 29.72 in 10.0 mi NNE 5.8 mph - N/A   Partly Cloudy
5:58 AM 39.4 °F 34.5 °F 38.1 °F 95% 29.75 in 10.0 mi NE 6.9 mph - 0.00 in   Partly Cloudy
6:01 AM 39.2 °F 35.0 °F 37.4 °F 93% 29.71 in 10.0 mi ENE 5.8 mph - N/A Rain Light Rain
6:30 AM 39.2 °F 35.9 °F 37.4 °F 93% 29.70 in 9.0 mi NNE 4.6 mph - N/A Rain Light Rain
6:41 AM 39.2 °F 35.0 °F 37.4 °F 93% 29.69 in 10.0 mi NE 5.8 mph - N/A Rain Light Rain
6:58 AM 38.8 °F 36.5 °F 37.8 °F 96% 29.72 in 10.0 mi NNE 3.5 mph - 0.02 in Rain Light Rain
7:08 AM 39.2 °F 35.9 °F 37.4 °F 93% 29.68 in 9.0 mi NE 4.6 mph - N/A Rain Light Rain
7:23 AM 39.2 °F 35.0 °F 37.4 °F 93% 29.67 in 9.0 mi NNE 5.8 mph - N/A Rain Light Rain
7:29 AM 39.2 °F 35.9 °F 37.4 °F 93% 29.67 in 9.0 mi North 4.6 mph - N/A Rain Rain
7:44 AM 39.2 °F 37.0 °F 39.2 °F 100% 29.67 in 6.0 mi North 3.5 mph - N/A Rain Rain
7:58 AM 39.2 °F 35.9 °F 38.5 °F 97% 29.72 in 4.0 mi NE 4.6 mph - 0.08 in Rain Rain
8:58 AM 39.2 °F 35.0 °F 39.0 °F 99% 29.69 in 5.0 mi East 5.8 mph - 0.08 in Rain Rain
9:18 AM 42.8 °F 38.6 °F 42.8 °F 100% 29.63 in 5.0 mi SE 6.9 mph - N/A Rain Light Rain
9:27 AM 42.8 °F 36.2 °F 42.8 °F 100% 29.62 in 7.0 mi SE 12.7 mph - N/A Rain Rain
9:42 AM 42.8 °F 37.0 °F 42.8 °F 100% 29.63 in 7.0 mi South 10.4 mph - N/A Rain Rain
9:52 AM 44.6 °F 37.8 °F 42.8 °F 93% 29.62 in 6.0 mi South 15.0 mph - N/A Rain Rain
9:58 AM 44.1 °F 37.4 °F 43.5 °F 98% 29.66 in 6.0 mi South 13.8 mph - 0.10 in Rain Light Rain
10:08 AM 44.6 °F 37.8 °F 44.6 °F 100% 29.62 in 7.0 mi South 15.0 mph - N/A Rain Rain
10:58 AM 45.7 °F 37.6 °F 44.6 °F 96% 29.62 in 10.0 mi SSE 21.9 mph 29.9 mph 0.04 in Rain Light Rain
11:03 AM 46.4 °F 40.1 °F 44.6 °F 93% 29.57 in 10.0 mi SSE 15.0 mph 27.6 mph N/A Rain Light Rain
11:08 AM 46.4 °F 40.7 °F 44.6 °F 93% 29.58 in 10.0 mi SSE 12.7 mph 26.5 mph N/A   Light Drizzle
11:58 AM 46.9 °F - 43.3 °F 87% 29.62 in 10.0 mi South 20.7 mph 29.9 mph 0.01 in Rain Light Rain
12:18 PM 46.4 °F 38.3 °F 42.8 °F 87% 29.59 in 10.0 mi South 23.0 mph 28.8 mph N/A Rain Light Rain
12:33 PM 46.4 °F 37.7 °F 44.6 °F 93% 29.58 in 10.0 mi South 26.5 mph 33.4 mph N/A Rain Light Rain
12:48 PM 46.4 °F 37.7 °F 42.8 °F 87% 29.58 in 10.0 mi South 26.5 mph 34.5 mph N/A Rain Light Rain
12:58 PM 46.9 °F - 42.6 °F 85% 29.62 in 10.0 mi South 25.3 mph 41.4 mph 0.00 in Rain Light Rain
1:58 PM 48.0 °F - 42.6 °F 82% 29.59 in 10.0 mi South 20.7 mph 33.4 mph 0.00 in Rain Light Rain
2:08 PM 48.2 °F - 42.8 °F 82% 29.56 in 10.0 mi South 21.9 mph 32.2 mph N/A Rain Light Rain
2:13 PM 48.2 °F - 42.8 °F 82% 29.56 in 10.0 mi South 23.0 mph 31.1 mph N/A Rain Light Rain
2:23 PM 48.2 °F - 42.8 °F 82% 29.56 in 10.0 mi South 25.3 mph 34.5 mph N/A Rain Light Rain
2:58 PM 50.0 °F - 39.6 °F 67% 29.58 in 10.0 mi SSW 26.5 mph 39.1 mph 0.03 in Rain Light Rain
3:58 PM 48.6 °F - 36.7 °F 64% 29.60 in 10.0 mi South 25.3 mph 39.1 mph 0.00 in Rain Light Rain
4:58 PM 47.1 °F - 33.8 °F 60% 29.63 in 10.0 mi South 27.6 mph 38.0 mph 0.01 in Rain Light Rain
5:58 PM 44.8 °F 35.0 °F 31.6 °F 60% 29.65 in 10.0 mi South 29.9 mph 39.1 mph 0.00 in Rain Light Rain
6:04 PM 44.6 °F 35.3 °F 32.0 °F 61% 29.61 in 10.0 mi South 26.5 mph 39.1 mph N/A   Scattered Clouds
6:58 PM 41.9 °F 31.1 °F 30.2 °F 63% 29.68 in 10.0 mi SSW 29.9 mph 38.0 mph 0.00 in   Scattered Clouds
7:26 PM 41.0 °F 30.7 °F 30.2 °F 65% 29.66 in 10.0 mi South 25.3 mph 35.7 mph N/A   Overcast
7:30 PM 41.0 °F 31.4 °F 30.2 °F 65% 29.66 in 10.0 mi South 21.9 mph 35.7 mph N/A   Overcast
7:38 PM 41.0 °F 31.1 °F 32.0 °F 70% 29.66 in 10.0 mi South 23.0 mph 28.8 mph N/A   Overcast
7:48 PM 41.0 °F 31.1 °F 32.0 °F 70% 29.66 in 10.0 mi South 23.0 mph 33.4 mph N/A   Overcast
7:58 PM 41.2 °F 32.1 °F 30.4 °F 65% 29.70 in 10.0 mi South 19.6 mph 33.4 mph 0.00 in   Overcast
8:28 PM 41.0 °F 32.5 °F 30.2 °F 65% 29.68 in 10.0 mi South 17.3 mph 28.8 mph N/A   Overcast
8:47 PM 41.0 °F 32.5 °F 30.2 °F 65% 29.69 in 10.0 mi South 17.3 mph 27.6 mph N/A   Overcast
8:58 PM 40.3 °F 31.0 °F 29.5 °F 65% 29.73 in 10.0 mi South 19.6 mph 24.2 mph 0.00 in   Overcast
9:28 PM 39.2 °F 29.8 °F 32.0 °F 75% 29.71 in 10.0 mi South 18.4 mph 25.3 mph N/A   Overcast
9:33 PM 39.2 °F 29.6 °F 32.0 °F 75% 29.71 in 10.0 mi South 19.6 mph 25.3 mph N/A   Overcast
9:53 PM 37.4 °F 27.2 °F 32.0 °F 81% 29.72 in 10.0 mi South 19.6 mph 27.6 mph N/A   Overcast
9:54 PM 37.4 °F 27.5 °F 32.0 °F 81% 29.72 in 10.0 mi South 18.4 mph 27.6 mph N/A Snow Light Snow
9:58 PM 37.4 °F 26.9 °F 32.0 °F 81% 29.76 in 10.0 mi South 20.7 mph 26.5 mph 0.00 in Snow Light Snow
10:58 PM 37.0 °F 27.4 °F 31.5 °F 80% 29.78 in 10.0 mi SSW 17.3 mph 26.5 mph 0.00 in Rain Light Rain
11:38 PM 37.4 °F 26.6 °F 32.0 °F 81% 29.74 in 10.0 mi South 21.9 mph 27.6 mph N/A Snow Light Snow
11:58 PM 36.3 °F 24.9 °F 30.7 °F 80% 29.78 in 10.0 mi SSW 23.0 mph 32.2 mph 0.00 in Snow Light Snow